Location: TAAA CAC
(31.8680°N, 109.5150°W)
Time: 20:54:42
(UTC-07:00)

Hubble Space Telescope - Pass Details

Date: 19 March 2026
Orbit: 474 x 477 km, 28.5° (Epoch: 20 April)

Event Time Altitude Azimuth Distance (km) Brightness Sun altitude
Rises 18:48:12 0° 266° (W) 2,508 6.8 -4.9°
Reaches altitude 10° 18:50:42 10° 252° (WSW) 1,629 4.6 -5.4°
Maximum altitude 18:53:42 23° 198° (SSW) 1,044 2.4 -6.1°
Drops below altitude 10° 18:56:42 10° 145° (SE) 1,624 2.9 -6.7°
Enters shadow 18:58:24 - 133° (SE) 2,207 3.4 -7.1°
